IRON30 KCHS-KWRI

Flight info

Callsign IRON30
Flight time 1h 30m
Altitude 37000
Route SWPFX3 FILLI SARKY Q113 AARNN WAVES RAIMY OTT MXE/N0327F170 V3 MAZIE
Aircraft C17/H-SDE1E2FGHIJ5RTUWXY/LB1D1

Departure

Time 2026-05-07 00:59
Airport Charleston International Airport (KCHS)

Arrival

Time 2026-05-07 02:30
Airport Mc Guire Air Force Base (KWRI)
Time Latitude Longitude Altitude Speed Heading
2026-05-07 00:25 32.90527 -80.04683 49 ft 0 kts 237°
2026-05-07 00:55 32.90518 -80.04698 47 ft 7 kts 241°
2026-05-07 00:55 32.90535 -80.04762 46 ft 10 kts 320°
2026-05-07 00:56 32.90590 -80.04789 47 ft 8 kts 11°
2026-05-07 00:56 32.90629 -80.04753 51 ft 7 kts 50°
2026-05-07 00:56 32.90675 -80.04688 47 ft 13 kts 49°
2026-05-07 00:56 32.90723 -80.04678 50 ft 7 kts 335°
2026-05-07 00:57 32.90788 -80.04726 54 ft 14 kts 327°
2026-05-07 00:57 32.90879 -80.04797 50 ft 17 kts 328°
2026-05-07 00:57 32.90992 -80.04877 52 ft 21 kts 328°
2026-05-07 00:57 32.91120 -80.04978 52 ft 20 kts 331°
2026-05-07 00:58 32.91217 -80.04950 56 ft 14 kts 60°
2026-05-07 00:58 32.91263 -80.04855 54 ft 12 kts 59°
2026-05-07 00:58 32.91284 -80.04799 57 ft 5 kts 94°
2026-05-07 00:58 32.91263 -80.04778 52 ft 12 kts 155°
2026-05-07 00:59 32.90300 -80.04082 153 ft 155 kts 151°
2026-05-07 00:59 32.89263 -80.03336 665 ft 194 kts 150°
2026-05-07 00:59 32.88046 -80.02359 1649 ft 227 kts 148°
2026-05-07 01:00 32.87086 -80.00775 2897 ft 254 kts 107°
2026-05-07 01:00 32.87316 -79.98674 4281 ft 263 kts 63°
2026-05-07 01:00 32.88526 -79.97115 5696 ft 257 kts 25°
2026-05-07 01:00 32.90232 -79.96772 7006 ft 254 kts 343°
2026-05-07 01:01 32.91763 -79.97815 8110 ft 262 kts 309°
2026-05-07 01:01 32.93225 -79.99051 9937 ft 257 kts 329°
2026-05-07 01:01 32.94929 -80.00004 11188 ft 279 kts 326°
2026-05-07 01:01 32.96804 -80.00916 11202 ft 326 kts 343°
2026-05-07 01:02 32.99260 -80.00724 10577 ft 388 kts 14°
2026-05-07 01:02 33.01658 -79.98927 10412 ft 426 kts 44°
2026-05-07 01:02 33.03281 -79.96027 11531 ft 403 kts 51°
2026-05-07 01:02 33.05229 -79.93954 13470 ft 355 kts 27°
2026-05-07 01:03 33.07338 -79.92737 15008 ft 324 kts 12°
2026-05-07 01:03 33.09540 -79.92188 15429 ft 334 kts 357°
2026-05-07 01:03 33.11874 -79.92342 14957 ft 335 kts 345°
2026-05-07 01:03 33.14286 -79.92844 14304 ft 381 kts 345°
2026-05-07 01:04 33.17132 -79.93416 13791 ft 443 kts 348°
2026-05-07 01:04 33.20033 -79.93872 14044 ft 402 kts 348°
2026-05-07 01:04 33.22758 -79.93914 13744 ft 380 kts
2026-05-07 01:04 33.25238 -79.93116 14132 ft 382 kts 12°
2026-05-07 01:05 33.27826 -79.92089 13362 ft 382 kts 18°
2026-05-07 01:05 33.29961 -79.90840 15405 ft 329 kts 22°
2026-05-07 01:05 33.32096 -79.89472 15719 ft 374 kts 18°
2026-05-07 01:05 33.34605 -79.88091 14989 ft 397 kts 22°
2026-05-07 01:06 33.36792 -79.86306 15831 ft 372 kts 34°
2026-05-07 01:06 33.38851 -79.84590 17505 ft 358 kts 21°
2026-05-07 01:06 33.41087 -79.83221 18624 ft 355 kts 18°
2026-05-07 01:06 33.43382 -79.82133 19186 ft 361 kts
2026-05-07 01:07 33.45947 -79.81828 18921 ft 372 kts 352°
2026-05-07 01:07 33.48396 -79.81899 19889 ft 339 kts 349°
2026-05-07 01:07 33.50790 -79.81951 20923 ft 354 kts 353°
2026-05-07 01:07 33.53299 -79.81716 21722 ft 375 kts 360°
2026-05-07 01:08 33.55951 -79.81200 22524 ft 387 kts
2026-05-07 01:08 33.58632 -79.80644 23306 ft 394 kts
2026-05-07 01:08 33.61358 -79.80235 24030 ft 394 kts 358°
2026-05-07 01:08 33.64098 -79.79896 24702 ft 400 kts 358°
2026-05-07 01:09 33.66881 -79.79479 25386 ft 408 kts
2026-05-07 01:09 33.69719 -79.79000 26096 ft 412 kts
2026-05-07 01:09 33.72568 -79.78558 26816 ft 415 kts 359°
2026-05-07 01:09 33.75455 -79.78143 27553 ft 421 kts 359°
2026-05-07 01:10 33.78381 -79.77702 28305 ft 428 kts 359°
2026-05-07 01:10 33.81355 -79.77233 29114 ft 435 kts
2026-05-07 01:10 33.84386 -79.76687 29906 ft 450 kts
2026-05-07 01:10 33.87332 -79.75337 30601 ft 466 kts 21°
2026-05-07 01:11 33.90207 -79.73380 31333 ft 472 kts 22°
2026-05-07 01:11 33.93021 -79.71382 32067 ft 480 kts 22°
2026-05-07 01:11 33.95918 -79.69342 32826 ft 483 kts 21°
2026-05-07 01:11 33.98880 -79.67299 33593 ft 486 kts 20°
2026-05-07 01:12 34.01833 -79.65264 34333 ft 494 kts 20°
2026-05-07 01:12 34.04820 -79.63175 35046 ft 490 kts 21°
2026-05-07 01:12 34.07625 -79.61165 35699 ft 448 kts 19°
2026-05-07 01:12 34.10195 -79.59342 36330 ft 409 kts 17°
2026-05-07 01:13 34.12615 -79.57702 36924 ft 407 kts 15°
2026-05-07 01:13 34.15196 -79.55978 36978 ft 430 kts 16°
2026-05-07 01:13 34.17784 -79.54152 37001 ft 441 kts 18°
2026-05-07 01:14 34.23098 -79.50360 36992 ft 442 kts 17°
2026-05-07 01:14 34.28431 -79.46663 37026 ft 442 kts 17°
2026-05-07 01:15 34.33774 -79.42892 36986 ft 447 kts 17°
2026-05-07 01:15 34.39183 -79.39909 37019 ft 396 kts 349°
2026-05-07 01:16 34.44659 -79.39806 36999 ft 419 kts
2026-05-07 01:16 34.47471 -79.38582 36983 ft 439 kts 15°
2026-05-07 01:16 34.50083 -79.36526 36975 ft 457 kts 28°
2026-05-07 01:16 34.52629 -79.34337 37019 ft 439 kts 14°
2026-05-07 01:17 34.55381 -79.32861 36984 ft 430 kts
2026-05-07 01:17 34.61014 -79.30367 36966 ft 435 kts 11°
2026-05-07 01:18 34.66386 -79.26979 36965 ft 441 kts 16°
2026-05-07 01:18 34.71877 -79.23667 36983 ft 437 kts 11°
2026-05-07 01:19 34.77371 -79.20412 37008 ft 441 kts 14°
2026-05-07 01:19 34.81925 -79.17634 36966 ft 440 kts 12°
2026-05-07 01:20 34.87454 -79.14356 36973 ft 443 kts 13°
2026-05-07 01:20 34.92974 -79.11003 36969 ft 440 kts 13°
2026-05-07 01:21 34.98447 -79.07726 36960 ft 441 kts 13°
2026-05-07 01:21 35.03817 -79.04474 36948 ft 444 kts 12°
2026-05-07 01:22 35.09371 -79.01117 36945 ft 441 kts 12°
2026-05-07 01:22 35.14828 -78.97816 36947 ft 441 kts 12°
2026-05-07 01:23 35.20337 -78.94476 36960 ft 443 kts 12°
2026-05-07 01:23 35.25829 -78.91137 36967 ft 442 kts 11°
2026-05-07 01:24 35.31373 -78.87774 36964 ft 447 kts 11°
2026-05-07 01:24 35.36930 -78.84376 36958 ft 445 kts 11°
2026-05-07 01:25 35.42456 -78.81013 36957 ft 444 kts 11°
2026-05-07 01:25 35.47994 -78.77628 36964 ft 446 kts 12°
2026-05-07 01:26 35.53538 -78.74231 36977 ft 444 kts 11°
2026-05-07 01:26 35.59070 -78.70846 36965 ft 445 kts 12°
2026-05-07 01:27 35.64625 -78.67433 36936 ft 445 kts 12°
2026-05-07 01:27 35.70137 -78.64037 36944 ft 439 kts 12°
2026-05-07 01:28 35.75610 -78.60644 36958 ft 456 kts 16°
2026-05-07 01:28 35.80983 -78.56311 36956 ft 465 kts 21°
2026-05-07 01:29 35.86083 -78.51260 36961 ft 471 kts 25°
2026-05-07 01:29 35.91265 -78.46406 36975 ft 467 kts 22°
2026-05-07 01:30 35.96443 -78.41476 36952 ft 472 kts 24°
2026-05-07 01:30 36.01624 -78.36533 36982 ft 471 kts 22°
2026-05-07 01:31 36.06838 -78.31576 36976 ft 472 kts 24°
2026-05-07 01:31 36.12007 -78.26622 36974 ft 470 kts 23°
2026-05-07 01:32 36.17215 -78.21657 36989 ft 474 kts 23°
2026-05-07 01:32 36.22412 -78.16658 36956 ft 472 kts 23°
2026-05-07 01:33 36.27618 -78.11671 36941 ft 472 kts 23°
2026-05-07 01:33 36.32819 -78.06665 36937 ft 474 kts 23°
2026-05-07 01:34 36.38074 -78.01870 36936 ft 452 kts 12°
2026-05-07 01:34 36.40873 -78.00353 36952 ft 436 kts
2026-05-07 01:34 36.43742 -77.99062 36948 ft 437 kts
2026-05-07 01:35 36.49452 -77.96414 36936 ft 437 kts
2026-05-07 01:35 36.55111 -77.93771 36926 ft 433 kts
2026-05-07 01:36 36.60773 -77.91142 36981 ft 436 kts
2026-05-07 01:36 36.66456 -77.88478 36993 ft 437 kts
2026-05-07 01:37 36.72145 -77.85819 36982 ft 436 kts
2026-05-07 01:37 36.77824 -77.83160 36975 ft 437 kts
2026-05-07 01:38 36.83511 -77.80488 36959 ft 437 kts
2026-05-07 01:38 36.89202 -77.77814 36950 ft 437 kts
2026-05-07 01:39 36.94897 -77.75132 36940 ft 437 kts
2026-05-07 01:39 37.00591 -77.72448 36939 ft 438 kts
2026-05-07 01:40 37.06292 -77.69752 36924 ft 437 kts
2026-05-07 01:40 37.11997 -77.67058 36932 ft 439 kts
2026-05-07 01:41 37.17680 -77.64359 36938 ft 439 kts
2026-05-07 01:41 37.23391 -77.61651 36936 ft 438 kts
2026-05-07 01:42 37.29099 -77.58938 36904 ft 439 kts
2026-05-07 01:42 37.34805 -77.56221 36920 ft 439 kts
2026-05-07 01:43 37.40522 -77.53491 36919 ft 438 kts
2026-05-07 01:43 37.46230 -77.50768 36919 ft 439 kts
2026-05-07 01:44 37.51951 -77.48027 36921 ft 440 kts
2026-05-07 01:44 37.57704 -77.45274 36911 ft 445 kts
2026-05-07 01:44 37.60550 -77.43516 36929 ft 464 kts 14°
2026-05-07 01:45 37.63338 -77.41453 36922 ft 465 kts 14°
2026-05-07 01:45 37.68946 -77.37400 36924 ft 463 kts 13°
2026-05-07 01:46 37.74556 -77.33353 36921 ft 465 kts 14°
2026-05-07 01:46 37.80146 -77.29292 36912 ft 463 kts 13°
2026-05-07 01:47 37.85755 -77.25233 36908 ft 465 kts 14°
2026-05-07 01:47 37.91351 -77.21154 36901 ft 462 kts 14°
2026-05-07 01:48 37.96897 -77.17118 36900 ft 459 kts 14°
2026-05-07 01:48 38.02477 -77.13056 36887 ft 465 kts 14°
2026-05-07 01:49 38.08055 -77.08963 36888 ft 461 kts 14°
2026-05-07 01:49 38.13613 -77.04908 36876 ft 462 kts 14°
2026-05-07 01:50 38.19195 -77.00810 36873 ft 465 kts 14°
2026-05-07 01:50 38.22009 -76.98939 36876 ft 446 kts
2026-05-07 01:50 38.24884 -76.97511 36879 ft 441 kts
2026-05-07 01:51 38.30628 -76.94679 36881 ft 446 kts
2026-05-07 01:51 38.36388 -76.91748 36882 ft 444 kts
2026-05-07 01:52 38.42141 -76.88882 36883 ft 445 kts
2026-05-07 01:52 38.47905 -76.85958 36847 ft 445 kts
2026-05-07 01:53 38.53641 -76.83069 36856 ft 442 kts
2026-05-07 01:53 38.59337 -76.80190 36864 ft 445 kts
2026-05-07 01:54 38.65088 -76.77270 36886 ft 442 kts
2026-05-07 01:54 38.70783 -76.74247 36867 ft 456 kts 13°
2026-05-07 01:54 38.73513 -76.71989 36905 ft 472 kts 19°
2026-05-07 01:55 38.76223 -76.69585 36902 ft 475 kts 19°
2026-05-07 01:55 38.81679 -76.64846 36937 ft 471 kts 18°
2026-05-07 01:56 38.87109 -76.60118 36889 ft 472 kts 18°
2026-05-07 01:56 38.92543 -76.55373 36908 ft 474 kts 18°
2026-05-07 01:56 38.95282 -76.52984 36788 ft 477 kts 18°
2026-05-07 01:57 38.98032 -76.50582 36386 ft 480 kts 19°
2026-05-07 01:57 39.00773 -76.48163 35829 ft 473 kts 20°
2026-05-07 01:57 39.03456 -76.45791 35375 ft 464 kts 19°
2026-05-07 01:57 39.06097 -76.43479 34871 ft 455 kts 19°
2026-05-07 01:58 39.08693 -76.41212 34375 ft 447 kts 19°
2026-05-07 01:58 39.11243 -76.38971 33899 ft 440 kts 20°
2026-05-07 01:58 39.13741 -76.36765 33347 ft 433 kts 20°
2026-05-07 01:58 39.16209 -76.34589 32818 ft 426 kts 20°
2026-05-07 01:59 39.18635 -76.32455 32298 ft 419 kts 20°
2026-05-07 01:59 39.21027 -76.30346 31789 ft 413 kts 20°
2026-05-07 01:59 39.23382 -76.28267 31302 ft 409 kts 19°
2026-05-07 01:59 39.25728 -76.26200 30817 ft 410 kts 20°
2026-05-07 02:00 39.28098 -76.24114 30330 ft 414 kts 20°
2026-05-07 02:00 39.30478 -76.22007 29882 ft 417 kts 21°
2026-05-07 02:00 39.32836 -76.19905 29342 ft 415 kts 21°
2026-05-07 02:00 39.35222 -76.17780 28801 ft 410 kts 21°
2026-05-07 02:01 39.37562 -76.15708 28260 ft 405 kts 20°
2026-05-07 02:01 39.39874 -76.13658 27693 ft 399 kts 20°
2026-05-07 02:01 39.42205 -76.11606 27272 ft 422 kts 20°
2026-05-07 02:01 39.44755 -76.09399 26859 ft 452 kts 22°
2026-05-07 02:02 39.46460 -76.07859 26556 ft 452 kts 24°
2026-05-07 02:02 39.49001 -76.05510 26085 ft 443 kts 23°
2026-05-07 02:02 39.51498 -76.03270 25606 ft 434 kts 22°
2026-05-07 02:02 39.54809 -76.00374 24970 ft 425 kts 22°
2026-05-07 02:03 39.56415 -75.98945 24657 ft 424 kts 23°
2026-05-07 02:03 39.58960 -75.96687 24229 ft 468 kts 24°
2026-05-07 02:03 39.61686 -75.94259 23830 ft 470 kts 25°
2026-05-07 02:03 39.64307 -75.91840 23405 ft 454 kts 25°
2026-05-07 02:04 39.66856 -75.89530 22935 ft 438 kts 24°
2026-05-07 02:04 39.69300 -75.87368 22879 ft 421 kts 23°
2026-05-07 02:04 39.71748 -75.85208 22876 ft 430 kts 24°
2026-05-07 02:04 39.74236 -75.82977 22892 ft 437 kts 25°
2026-05-07 02:05 39.76717 -75.80710 22892 ft 435 kts 25°
2026-05-07 02:05 39.79196 -75.78465 22891 ft 434 kts 24°
2026-05-07 02:05 39.81684 -75.76244 22895 ft 434 kts 24°
2026-05-07 02:05 39.84163 -75.74016 22894 ft 432 kts 24°
2026-05-07 02:06 39.86633 -75.71772 22892 ft 432 kts 25°
2026-05-07 02:06 39.89102 -75.69535 22904 ft 433 kts 24°
2026-05-07 02:06 39.91567 -75.67268 22902 ft 438 kts 29°
2026-05-07 02:06 39.93775 -75.64460 22920 ft 447 kts 38°
2026-05-07 02:07 39.95883 -75.61479 22919 ft 441 kts 39°
2026-05-07 02:07 39.99893 -75.55924 22915 ft 412 kts 36°
2026-05-07 02:07 40.01914 -75.53201 22924 ft 425 kts 37°
2026-05-07 02:08 40.03954 -75.50369 22925 ft 427 kts 38°
2026-05-07 02:08 40.05962 -75.47534 22922 ft 423 kts 38°
2026-05-07 02:08 40.07975 -75.44746 22888 ft 423 kts 37°
2026-05-07 02:08 40.10004 -75.41977 22528 ft 431 kts 38°
2026-05-07 02:09 40.12072 -75.39106 21989 ft 425 kts 39°
2026-05-07 02:09 40.14055 -75.36309 21498 ft 415 kts 39°
2026-05-07 02:09 40.15995 -75.33608 20815 ft 411 kts 39°
2026-05-07 02:09 40.17958 -75.30909 20099 ft 409 kts 40°
2026-05-07 02:10 40.19929 -75.28170 19394 ft 407 kts 41°
2026-05-07 02:10 40.21853 -75.25472 18695 ft 404 kts 41°
2026-05-07 02:10 40.23760 -75.22805 18002 ft 401 kts 42°
2026-05-07 02:10 40.25659 -75.20159 17335 ft 398 kts 42°
2026-05-07 02:11 40.27565 -75.17464 16696 ft 403 kts 46°
2026-05-07 02:11 40.29239 -75.14591 16059 ft 394 kts 40°
2026-05-07 02:11 40.31479 -75.12805 15459 ft 366 kts
2026-05-07 02:11 40.33862 -75.12797 14903 ft 330 kts 332°
2026-05-07 02:12 40.35648 -75.14371 14371 ft 299 kts 297°
2026-05-07 02:12 40.36273 -75.16815 13883 ft 280 kts 263°
2026-05-07 02:12 40.35579 -75.19119 13351 ft 277 kts 229°
2026-05-07 02:12 40.33861 -75.20309 12797 ft 294 kts 195°
2026-05-07 02:13 40.31811 -75.20574 12233 ft 295 kts 195°
2026-05-07 02:13 40.29800 -75.20971 11661 ft 295 kts 192°
2026-05-07 02:13 40.27725 -75.20556 11099 ft 311 kts 169°
2026-05-07 02:13 40.25795 -75.19203 10552 ft 323 kts 151°
2026-05-07 02:14 40.24226 -75.17014 10015 ft 336 kts 131°
2026-05-07 02:14 40.23245 -75.14199 9449 ft 347 kts 110°
2026-05-07 02:14 40.22690 -75.11129 8974 ft 344 kts 108°
2026-05-07 02:14 40.22186 -75.08111 8880 ft 336 kts 107°
2026-05-07 02:15 40.21689 -75.05127 8874 ft 344 kts 106°
2026-05-07 02:15 40.21186 -75.02090 8884 ft 339 kts 106°
2026-05-07 02:15 40.20678 -74.99063 8873 ft 343 kts 106°
2026-05-07 02:15 40.20160 -74.96010 8871 ft 341 kts 106°
2026-05-07 02:16 40.19650 -74.92989 8877 ft 342 kts 106°
2026-05-07 02:16 40.19134 -74.89939 8870 ft 344 kts 107°
2026-05-07 02:16 40.18621 -74.86901 8867 ft 338 kts 106°
2026-05-07 02:16 40.18132 -74.83992 8856 ft 319 kts 107°
2026-05-07 02:17 40.17645 -74.81152 8859 ft 324 kts 107°
2026-05-07 02:17 40.17151 -74.78279 8960 ft 322 kts 107°
2026-05-07 02:17 40.16663 -74.75407 8977 ft 326 kts 107°
2026-05-07 02:17 40.16172 -74.72517 8976 ft 324 kts 107°
2026-05-07 02:18 40.15682 -74.69652 8971 ft 323 kts 107°
2026-05-07 02:18 40.15188 -74.66780 8976 ft 325 kts 107°
2026-05-07 02:18 40.14693 -74.63894 8976 ft 325 kts 107°
2026-05-07 02:18 40.14199 -74.61014 8973 ft 324 kts 107°
2026-05-07 02:19 40.13705 -74.58146 8975 ft 324 kts 107°
2026-05-07 02:19 40.13210 -74.55279 8973 ft 325 kts 107°
2026-05-07 02:19 40.12724 -74.52445 8873 ft 310 kts 107°
2026-05-07 02:19 40.12258 -74.49740 8590 ft 302 kts 107°
2026-05-07 02:20 40.11796 -74.47093 8328 ft 297 kts 107°
2026-05-07 02:20 40.11363 -74.44475 8071 ft 295 kts 102°
2026-05-07 02:20 40.11527 -74.41823 7802 ft 298 kts 70°
2026-05-07 02:20 40.12558 -74.39489 7588 ft 295 kts 45°
2026-05-07 02:21 40.13948 -74.37529 7383 ft 294 kts 42°
2026-05-07 02:21 40.15362 -74.35601 7152 ft 293 kts 43°
2026-05-07 02:21 40.16753 -74.33675 6914 ft 289 kts 43°
2026-05-07 02:21 40.18141 -74.31820 6663 ft 281 kts 34°
2026-05-07 02:22 40.19831 -74.30713 6409 ft 267 kts
2026-05-07 02:22 40.21647 -74.30539 6080 ft 261 kts 345°
2026-05-07 02:22 40.23349 -74.31274 5355 ft 256 kts 323°
2026-05-07 02:22 40.24692 -74.32743 4662 ft 251 kts 304°
2026-05-07 02:23 40.25527 -74.34726 3947 ft 249 kts 284°
2026-05-07 02:23 40.25759 -74.36959 3273 ft 248 kts 266°
2026-05-07 02:23 40.25388 -74.39041 3027 ft 221 kts 249°
2026-05-07 02:23 40.24593 -74.40736 2994 ft 224 kts 232°
2026-05-07 02:24 40.23391 -74.42034 2990 ft 227 kts 215°
2026-05-07 02:24 40.21904 -74.42759 2986 ft 238 kts 196°
2026-05-07 02:24 40.20248 -74.42885 2989 ft 237 kts 186°
2026-05-07 02:24 40.18577 -74.42936 2997 ft 242 kts 187°
2026-05-07 02:25 40.16906 -74.43010 2927 ft 238 kts 187°
2026-05-07 02:25 40.15236 -74.43077 2866 ft 240 kts 187°
2026-05-07 02:25 40.13598 -74.43287 2783 ft 237 kts 199°
2026-05-07 02:25 40.12154 -74.44184 2714 ft 227 kts 218°
2026-05-07 02:26 40.11003 -74.45589 2639 ft 225 kts 231°
2026-05-07 02:26 40.09949 -74.47028 2597 ft 201 kts 229°
2026-05-07 02:26 40.09101 -74.48132 2502 ft 149 kts 231°
2026-05-07 02:26 40.08420 -74.49061 2385 ft 143 kts 233°
2026-05-07 02:27 40.07726 -74.50006 2240 ft 141 kts 231°
2026-05-07 02:27 40.07068 -74.50881 2029 ft 131 kts 231°
2026-05-07 02:27 40.06488 -74.51622 1780 ft 124 kts 230°
2026-05-07 02:27 40.05910 -74.52400 1501 ft 117 kts 232°
2026-05-07 02:28 40.05339 -74.53215 1130 ft 125 kts 231°
2026-05-07 02:28 40.04747 -74.54037 846 ft 123 kts 229°
2026-05-07 02:28 40.04147 -74.54858 692 ft 125 kts 226°
2026-05-07 02:28 40.03534 -74.55666 509 ft 125 kts 224°
2026-05-07 02:29 40.02922 -74.56468 301 ft 123 kts 224°
2026-05-07 02:29 40.02328 -74.57250 141 ft 116 kts 225°
2026-05-07 02:29 40.01832 -74.57903 115 ft 78 kts 226°
2026-05-07 02:29 40.01502 -74.58343 118 ft 62 kts 225°
2026-05-07 02:30 40.01228 -74.58699 121 ft 51 kts 225°
2026-05-07 02:30 40.01028 -74.58971 125 ft 28 kts 225°
2026-05-07 02:30 40.00891 -74.59161 132 ft 26 kts 233°
2026-05-07 02:30 40.00908 -74.59295 129 ft 16 kts 314°
2026-05-07 02:31 40.00957 -74.59354 123 ft 1 kts 318°
2026-05-07 02:31 40.00969 -74.59368 123 ft 4 kts 318°
2026-05-07 02:31 40.00995 -74.59385 123 ft 5 kts 350°
2026-05-07 02:31 40.01042 -74.59352 123 ft 13 kts 45°
2026-05-07 02:32 40.01136 -74.59231 125 ft 24 kts 45°
2026-05-07 02:32 40.01259 -74.59074 123 ft 25 kts 44°
2026-05-07 02:32 40.01375 -74.58912 123 ft 24 kts 47°
2026-05-07 02:32 40.01492 -74.58752 118 ft 24 kts 46°
2026-05-07 02:33 40.01609 -74.58592 119 ft 24 kts 46°
2026-05-07 02:33 40.01730 -74.58438 115 ft 24 kts 45°
2026-05-07 02:33 40.01848 -74.58281 116 ft 24 kts 45°
2026-05-07 02:33 40.01967 -74.58128 113 ft 21 kts 45°
2026-05-07 02:34 40.02065 -74.58067 113 ft 15 kts 321°
2026-05-07 02:34 40.02112 -74.58168 114 ft 14 kts 296°
2026-05-07 02:34 40.02155 -74.58282 112 ft 13 kts 296°
2026-05-07 02:34 40.02194 -74.58385 115 ft 12 kts 299°
2026-05-07 02:35 40.02249 -74.58399 115 ft 8 kts 354°
2026-05-07 02:35 40.02284 -74.58425 114 ft 3 kts 291°
2026-05-07 02:35 40.02289 -74.58458 116 ft 6 kts 280°
2026-05-07 02:35 40.02292 -74.58472 116 ft 0 kts 285°